Time,TemperatureF,DewpointF,PressureIn,WindDirection,WindDirectionDegrees,WindSpeedMPH,WindSpeedGustMPH,Humidity,HourlyPrecipIn,Conditions,Clouds,dailyrainin,SoftwareType,DateUTC
2013-01-21 00:07:00,11.6,5.0,30.59,SSW,211,0.0,-999.0,73,-99.99,,,0.00,weatherlink.com 1.10,2013-01-21 07:07:00,
2013-01-21 00:22:00,11.9,5.0,30.57,SSW,211,1.0,-999.0,73,-99.99,,,0.00,weatherlink.com 1.10,2013-01-21 07:22:00,
2013-01-21 00:37:00,11.2,4.0,30.57,SSW,211,0.0,-999.0,72,-99.99,,,0.00,weatherlink.com 1.10,2013-01-21 07:37:00,
2013-01-21 00:52:00,10.7,4.0,30.56,SSW,211,0.0,-999.0,73,-99.99,,,0.00,weatherlink.com 1.10,2013-01-21 07:52:00,
2013-01-21 01:22:00,10.2,3.0,30.56,SSW,211,0.0,-999.0,72,-99.99,,,0.00,weatherlink.com 1.10,2013-01-21 08:22:00,
2013-01-21 01:37:00,9.7,3.0,30.57,SSW,211,0.0,-999.0,73,-99.99,,,0.00,weatherlink.com 1.10,2013-01-21 08:37:00,
2013-01-21 01:52:00,9.0,2.0,30.57,SSW,211,0.0,-999.0,72,-99.99,,,0.00,weatherlink.com 1.10,2013-01-21 08:52:00,
2013-01-21 02:07:00,8.6,2.0,30.58,SSW,211,0.0,-999.0,73,-99.99,,,0.00,weatherlink.com 1.10,2013-01-21 09:07:00,
2013-01-21 02:22:00,8.3,1.0,30.58,SSW,211,0.0,-999.0,73,-99.99,,,0.00,weatherlink.com 1.10,2013-01-21 09:22:00,
2013-01-21 02:37:00,8.6,2.0,30.58,SSW,211,0.0,-999.0,74,-99.99,,,0.00,weatherlink.com 1.10,2013-01-21 09:37:00,
2013-01-21 02:52:00,7.9,1.0,30.57,SSW,211,0.0,-999.0,73,-99.99,,,0.00,weatherlink.com 1.10,2013-01-21 09:52:00,
2013-01-21 03:07:00,7.7,1.0,30.58,SSW,211,0.0,-999.0,73,-99.99,,,0.00,weatherlink.com 1.10,2013-01-21 10:07:00,
2013-01-21 03:22:00,7.6,1.0,30.57,SSW,211,0.0,-999.0,73,-99.99,,,0.00,weatherlink.com 1.10,2013-01-21 10:22:00,
2013-01-21 03:37:00,7.0,0.0,30.57,SSW,211,0.0,-999.0,73,-99.99,,,0.00,weatherlink.com 1.10,2013-01-21 10:37:00,
2013-01-21 03:52:00,6.9,0.0,30.57,SSW,211,0.0,-999.0,74,-99.99,,,0.00,weatherlink.com 1.10,2013-01-21 10:52:00,
2013-01-21 04:07:00,7.0,0.0,30.57,SSW,211,0.0,-999.0,74,-99.99,,,0.00,weatherlink.com 1.10,2013-01-21 11:07:00,
2013-01-21 04:22:00,6.7,0.0,30.59,SSW,211,0.0,-999.0,74,-99.99,,,0.00,weatherlink.com 1.10,2013-01-21 11:22:00,
2013-01-21 04:37:00,6.5,0.0,30.60,SSW,211,0.0,-999.0,74,-99.99,,,0.00,weatherlink.com 1.10,2013-01-21 11:37:00,
2013-01-21 04:52:00,6.3,0.0,30.60,SSW,211,0.0,-999.0,74,-99.99,,,0.00,weatherlink.com 1.10,2013-01-21 11:52:00,
2013-01-21 05:07:00,6.0,-1.0,30.60,SSW,211,0.0,-999.0,74,-99.99,,,0.00,weatherlink.com 1.10,2013-01-21 12:07:00,
2013-01-21 05:22:00,5.8,-1.0,30.62,SSW,211,0.0,-999.0,74,-99.99,,,0.00,weatherlink.com 1.10,2013-01-21 12:22:00,
2013-01-21 05:38:00,5.8,-1.0,30.63,SSW,211,0.0,-999.0,74,-99.99,,,0.00,weatherlink.com 1.10,2013-01-21 12:38:00,
2013-01-21 05:53:00,5.8,-1.0,30.64,SSW,211,0.0,-999.0,74,-99.99,,,0.00,weatherlink.com 1.10,2013-01-21 12:53:00,
2013-01-21 06:08:00,5.6,-1.0,30.64,SSW,211,0.0,-999.0,75,-99.99,,,0.00,weatherlink.com 1.10,2013-01-21 13:08:00,
2013-01-21 06:23:00,5.4,-1.0,30.66,SSW,211,0.0,-999.0,75,-99.99,,,0.00,weatherlink.com 1.10,2013-01-21 13:23:00,
2013-01-21 06:38:00,5.0,-2.0,30.67,SSW,211,0.0,-999.0,74,-99.99,,,0.00,weatherlink.com 1.10,2013-01-21 13:38:00,
2013-01-21 06:53:00,5.0,-1.0,30.67,SSW,211,0.0,-999.0,75,-99.99,,,0.00,weatherlink.com 1.10,2013-01-21 13:53:00,
2013-01-21 07:08:00,5.2,-1.0,30.67,SSW,211,0.0,-999.0,75,-99.99,,,0.00,weatherlink.com 1.10,2013-01-21 14:08:00,
2013-01-21 07:23:00,5.2,-1.0,30.68,SSW,211,0.0,-999.0,75,-99.99,,,0.00,weatherlink.com 1.10,2013-01-21 14:23:00,
2013-01-21 07:38:00,5.8,-1.0,30.68,SSW,211,0.0,-999.0,75,-99.99,,,0.00,weatherlink.com 1.10,2013-01-21 14:38:00,
2013-01-21 07:53:00,5.8,-1.0,30.69,SSW,211,0.0,-999.0,75,-99.99,,,0.00,weatherlink.com 1.10,2013-01-21 14:53:00,
2013-01-21 08:08:00,5.8,-1.0,30.69,SSW,211,0.0,-999.0,75,-99.99,,,0.00,weatherlink.com 1.10,2013-01-21 15:08:00,
2013-01-21 08:23:00,6.9,1.0,30.71,SSW,211,0.0,-999.0,76,-99.99,,,0.00,weatherlink.com 1.10,2013-01-21 15:23:00,
2013-01-21 08:38:00,8.8,2.0,30.70,SSW,211,0.0,-999.0,74,-99.99,,,0.00,weatherlink.com 1.10,2013-01-21 15:38:00,
2013-01-21 08:53:00,10.0,3.0,30.71,SSW,211,0.0,-999.0,72,-99.99,,,0.00,weatherlink.com 1.10,2013-01-21 15:53:00,
2013-01-21 09:09:00,11.4,3.0,30.71,SSW,211,0.0,-999.0,70,-99.99,,,0.00,weatherlink.com 1.10,2013-01-21 16:09:00,
2013-01-21 09:24:00,12.9,5.0,30.70,SSW,211,0.0,-999.0,69,-99.99,,,0.00,weatherlink.com 1.10,2013-01-21 16:24:00,
2013-01-21 09:39:00,14.3,5.0,30.69,SSW,211,0.0,-999.0,67,-99.99,,,0.00,weatherlink.com 1.10,2013-01-21 16:39:00,
2013-01-21 09:54:00,14.9,6.0,30.69,SSW,211,0.0,-999.0,67,-99.99,,,0.00,weatherlink.com 1.10,2013-01-21 16:54:00,
2013-01-21 10:09:00,16.1,6.0,30.68,SSW,211,2.0,-999.0,65,-99.99,,,0.00,weatherlink.com 1.10,2013-01-21 17:09:00,
2013-01-21 10:24:00,17.7,7.0,30.70,SSW,211,1.0,-999.0,63,-99.99,,,0.00,weatherlink.com 1.10,2013-01-21 17:24:00,
2013-01-21 10:39:00,18.8,8.0,30.69,SSW,211,0.0,-999.0,62,-99.99,,,0.00,weatherlink.com 1.10,2013-01-21 17:39:00,
2013-01-21 10:54:00,19.5,8.0,30.69,West,281,0.0,-999.0,60,-99.99,,,0.00,weatherlink.com 1.10,2013-01-21 17:54:00,
2013-01-21 11:09:00,20.5,8.0,30.68,West,281,1.0,-999.0,58,-99.99,,,0.00,weatherlink.com 1.10,2013-01-21 18:09:00,
2013-01-21 11:24:00,21.8,8.0,30.67,West,281,4.0,-999.0,56,-99.99,,,0.00,weatherlink.com 1.10,2013-01-21 18:24:00,
2013-01-21 11:39:00,22.2,9.0,30.66,WSW,248,0.0,-999.0,56,-99.99,,,0.00,weatherlink.com 1.10,2013-01-21 18:39:00,
2013-01-21 11:54:00,24.5,10.0,30.65,WSW,247,0.0,-999.0,54,-99.99,,,0.00,weatherlink.com 1.10,2013-01-21 18:54:00,
2013-01-21 12:09:00,25.8,10.0,30.63,WSW,239,2.0,-999.0,52,-99.99,,,0.00,weatherlink.com 1.10,2013-01-21 19:09:00,
2013-01-21 12:24:00,26.7,11.0,30.61,WSW,239,0.0,-999.0,51,-99.99,,,0.00,weatherlink.com 1.10,2013-01-21 19:24:00,
2013-01-21 12:40:00,27.6,11.0,30.59,WSW,239,2.0,-999.0,50,-99.99,,,0.00,weatherlink.com 1.10,2013-01-21 19:40:00,
2013-01-21 12:55:00,29.0,11.0,30.59,WSW,239,2.0,-999.0,48,-99.99,,,0.00,weatherlink.com 1.10,2013-01-21 19:55:00,
2013-01-21 13:10:00,28.2,12.0,30.57,WSW,240,1.0,-999.0,50,-99.99,,,0.00,weatherlink.com 1.10,2013-01-21 20:10:00,
2013-01-21 13:25:00,29.1,12.0,30.57,WSW,240,2.0,-999.0,49,-99.99,,,0.00,weatherlink.com 1.10,2013-01-21 20:25:00,
2013-01-21 13:40:00,30.4,12.0,30.55,WSW,240,0.0,-999.0,47,-99.99,,,0.00,weatherlink.com 1.10,2013-01-21 20:40:00,
2013-01-21 13:55:00,30.7,13.0,30.54,SW,217,1.0,-999.0,47,-99.99,,,0.00,weatherlink.com 1.10,2013-01-21 20:55:00,
2013-01-21 14:10:00,30.7,13.0,30.54,West,267,3.0,-999.0,47,-99.99,,,0.00,weatherlink.com 1.10,2013-01-21 21:10:00,
2013-01-21 14:25:00,31.3,13.0,30.55,NNW,348,5.0,-999.0,46,-99.99,,,0.00,weatherlink.com 1.10,2013-01-21 21:25:00,
2013-01-21 14:40:00,31.3,12.0,30.54,WNW,294,1.0,-999.0,45,-99.99,,,0.00,weatherlink.com 1.10,2013-01-21 21:40:00,
2013-01-21 14:55:00,32.2,12.0,30.53,WSW,245,2.0,-999.0,44,-99.99,,,0.00,weatherlink.com 1.10,2013-01-21 21:55:00,
2013-01-21 15:10:00,32.7,13.0,30.52,SW,223,2.0,-999.0,45,-99.99,,,0.00,weatherlink.com 1.10,2013-01-21 22:10:00,
2013-01-21 15:25:00,31.8,13.0,30.52,West,268,1.0,-999.0,46,-99.99,,,0.00,weatherlink.com 1.10,2013-01-21 22:25:00,
2013-01-21 15:40:00,31.6,13.0,30.54,WNW,290,3.0,-999.0,46,-99.99,,,0.00,weatherlink.com 1.10,2013-01-21 22:40:00,
2013-01-21 15:55:00,32.2,12.0,30.54,WSW,255,3.0,-999.0,44,-99.99,,,0.00,weatherlink.com 1.10,2013-01-21 22:55:00,
2013-01-21 16:11:00,31.9,13.0,30.53,WSW,255,0.0,-999.0,45,-99.99,,,0.00,weatherlink.com 1.10,2013-01-21 23:11:00,
2013-01-21 16:26:00,31.8,13.0,30.53,WSW,255,1.0,-999.0,46,-99.99,,,0.00,weatherlink.com 1.10,2013-01-21 23:26:00,
2013-01-21 16:41:00,30.3,13.0,30.53,WSW,255,0.0,-999.0,49,-99.99,,,0.00,weatherlink.com 1.10,2013-01-21 23:41:00,
2013-01-21 16:56:00,28.7,13.0,30.54,WSW,255,0.0,-999.0,52,-99.99,,,0.00,weatherlink.com 1.10,2013-01-21 23:56:00,
2013-01-21 17:11:00,28.1,13.0,30.55,WSW,255,0.0,-999.0,54,-99.99,,,0.00,weatherlink.com 1.10,2013-01-22 00:11:00,
2013-01-21 17:26:00,27.3,13.0,30.55,WSW,255,0.0,-999.0,55,-99.99,,,0.00,weatherlink.com 1.10,2013-01-22 00:26:00,
2013-01-21 17:41:00,26.4,13.0,30.56,WSW,255,0.0,-999.0,56,-99.99,,,0.00,weatherlink.com 1.10,2013-01-22 00:41:00,
2013-01-21 17:56:00,25.4,12.0,30.56,WSW,255,0.0,-999.0,57,-99.99,,,0.00,weatherlink.com 1.10,2013-01-22 00:56:00,
2013-01-21 18:11:00,24.2,12.0,30.57,WSW,255,0.0,-999.0,60,-99.99,,,0.00,weatherlink.com 1.10,2013-01-22 01:11:00,
2013-01-21 18:26:00,23.2,11.0,30.58,WSW,255,0.0,-999.0,61,-99.99,,,0.00,weatherlink.com 1.10,2013-01-22 01:26:00,
2013-01-21 18:41:00,22.4,11.0,30.58,WSW,255,0.0,-999.0,61,-99.99,,,0.00,weatherlink.com 1.10,2013-01-22 01:41:00,
2013-01-21 18:56:00,21.3,10.0,30.59,WSW,255,0.0,-999.0,62,-99.99,,,0.00,weatherlink.com 1.10,2013-01-22 01:56:00,
2013-01-21 19:11:00,20.5,10.0,30.60,WSW,255,0.0,-999.0,64,-99.99,,,0.00,weatherlink.com 1.10,2013-01-22 02:11:00,
2013-01-21 19:27:00,19.9,10.0,30.60,WSW,255,0.0,-999.0,65,-99.99,,,0.00,weatherlink.com 1.10,2013-01-22 02:27:00,
2013-01-21 19:42:00,19.1,9.0,30.61,WSW,255,2.0,-999.0,65,-99.99,,,0.00,weatherlink.com 1.10,2013-01-22 02:42:00,
2013-01-21 19:57:00,18.3,9.0,30.60,WSW,255,0.0,-999.0,66,-99.99,,,0.00,weatherlink.com 1.10,2013-01-22 02:57:00,
2013-01-21 20:12:00,17.7,8.0,30.61,WSW,255,0.0,-999.0,67,-99.99,,,0.00,weatherlink.com 1.10,2013-01-22 03:12:00,
2013-01-21 20:27:00,17.3,8.0,30.58,WSW,255,0.0,-999.0,67,-99.99,,,0.00,weatherlink.com 1.10,2013-01-22 03:27:00,
2013-01-21 20:42:00,17.0,8.0,30.59,WSW,255,0.0,-999.0,67,-99.99,,,0.00,weatherlink.com 1.10,2013-01-22 03:42:00,
2013-01-21 20:57:00,16.5,8.0,30.60,WSW,255,0.0,-999.0,68,-99.99,,,0.00,weatherlink.com 1.10,2013-01-22 03:57:00,
2013-01-21 21:12:00,16.1,8.0,30.60,WSW,255,0.0,-999.0,69,-99.99,,,0.00,weatherlink.com 1.10,2013-01-22 04:12:00,
2013-01-21 21:27:00,15.7,7.0,30.59,WSW,255,0.0,-999.0,69,-99.99,,,0.00,weatherlink.com 1.10,2013-01-22 04:27:00,
2013-01-21 21:42:00,15.4,7.0,30.59,WSW,255,0.0,-999.0,69,-99.99,,,0.00,weatherlink.com 1.10,2013-01-22 04:42:00,
2013-01-21 21:57:00,14.9,6.0,30.60,WSW,255,0.0,-999.0,69,-99.99,,,0.00,weatherlink.com 1.10,2013-01-22 04:57:00,
2013-01-21 22:12:00,14.8,7.0,30.60,WSW,255,0.0,-999.0,70,-99.99,,,0.00,weatherlink.com 1.10,2013-01-22 05:12:00,
2013-01-21 22:27:00,14.6,6.0,30.57,WSW,255,0.0,-999.0,70,-99.99,,,0.00,weatherlink.com 1.10,2013-01-22 05:27:00,
2013-01-21 22:42:00,14.1,6.0,30.58,WSW,255,0.0,-999.0,70,-99.99,,,0.00,weatherlink.com 1.10,2013-01-22 05:42:00,
2013-01-21 22:58:00,14.0,6.0,30.59,WSW,255,0.0,-999.0,70,-99.99,,,0.00,weatherlink.com 1.10,2013-01-22 05:58:00,
2013-01-21 23:13:00,13.5,5.0,30.59,WSW,255,0.0,-999.0,70,-99.99,,,0.00,weatherlink.com 1.10,2013-01-22 06:13:00,
2013-01-21 23:28:00,12.8,5.0,30.57,WSW,255,0.0,-999.0,71,-99.99,,,0.00,weatherlink.com 1.10,2013-01-22 06:28:00,
2013-01-21 23:43:00,12.6,5.0,30.57,WSW,255,0.0,-999.0,72,-99.99,,,0.00,weatherlink.com 1.10,2013-01-22 06:43:00,
2013-01-21 23:58:00,12.3,5.0,30.57,WSW,255,0.0,-999.0,72,-99.99,,,0.00,weatherlink.com 1.10,2013-01-22 06:58:00,